Time,TemperatureF,DewpointF,PressureIn,WindDirection,WindDirectionDegrees,WindSpeedMPH,WindSpeedGustMPH,Humidity,HourlyPrecipIn,Conditions,Clouds,dailyrainin,SoftwareType,DateUTC
2013-04-19 00:03:00,43.0,35.0,29.76,West,261,0.0,0.0,73,0.01,,,1.87,,2013-04-19 05:03:00,
2013-04-19 00:11:00,43.0,35.0,29.76,West,261,0.0,0.0,73,0.01,,,1.87,,2013-04-19 05:11:00,
2013-04-19 00:22:00,43.0,34.0,29.77,SW,226,0.0,0.0,70,0.00,,,1.87,,2013-04-19 05:22:00,
2013-04-19 00:32:00,42.0,34.0,29.77,NNW,337,0.0,0.0,72,0.00,,,1.87,,2013-04-19 05:32:00,
2013-04-19 00:42:00,42.0,34.0,29.77,NNW,337,0.0,0.0,72,0.00,,,1.87,,2013-04-19 05:42:00,
2013-04-19 00:52:00,42.0,33.0,29.77,NW,315,0.0,0.0,70,0.00,,,1.87,,2013-04-19 05:52:00,
2013-04-19 01:02:00,42.0,32.0,29.77,NNE,18,0.0,0.0,68,0.00,,,1.87,,2013-04-19 06:02:00,
2013-04-19 01:11:00,42.0,32.0,29.77,NNE,18,0.0,0.0,68,0.00,,,1.87,,2013-04-19 06:11:00,
2013-04-19 01:22:00,42.0,33.0,29.77,SW,230,0.0,0.0,70,0.00,,,1.87,,2013-04-19 06:22:00,
2013-04-19 01:32:00,42.0,33.0,29.77,SSW,207,0.0,0.0,71,0.00,,,1.87,,2013-04-19 06:32:00,
2013-04-19 01:42:00,42.0,33.0,29.77,SSW,207,0.0,0.0,71,0.00,,,1.87,,2013-04-19 06:42:00,
2013-04-19 01:52:00,42.0,33.0,29.77,West,278,0.0,0.0,69,0.00,,,1.87,,2013-04-19 06:52:00,
2013-04-19 02:02:00,41.0,31.0,29.77,SW,216,0.0,0.0,67,0.00,,,1.87,,2013-04-19 07:02:00,
2013-04-19 02:12:00,41.0,31.0,29.77,SW,216,0.0,0.0,67,0.00,,,1.87,,2013-04-19 07:12:00,
2013-04-19 02:21:00,41.0,31.0,29.77,NNE,12,0.0,0.0,66,0.00,,,1.87,,2013-04-19 07:21:00,
2013-04-19 02:32:00,41.0,31.0,29.77,West,273,0.0,0.0,67,0.00,,,1.87,,2013-04-19 07:32:00,
2013-04-19 02:42:00,41.0,31.0,29.77,West,273,0.0,0.0,67,0.00,,,1.87,,2013-04-19 07:42:00,
2013-04-19 02:52:00,41.0,31.0,29.77,SE,134,0.0,0.0,67,0.00,,,1.87,,2013-04-19 07:52:00,
2013-04-19 03:02:00,42.0,31.0,29.77,West,267,0.0,0.0,66,0.00,,,1.87,,2013-04-19 08:02:00,
2013-04-19 03:12:00,41.0,31.0,29.77,NW,306,0.0,0.0,66,0.00,,,1.87,,2013-04-19 08:12:00,
2013-04-19 03:21:00,41.0,31.0,29.77,NW,306,0.0,0.0,66,0.00,,,1.87,,2013-04-19 08:21:00,
2013-04-19 03:32:00,41.0,31.0,29.77,WSW,246,0.0,0.0,66,0.00,,,1.87,,2013-04-19 08:32:00,
2013-04-19 03:42:00,41.0,31.0,29.77,WSW,246,0.0,0.0,66,0.00,,,1.87,,2013-04-19 08:42:00,
2013-04-19 03:52:00,41.0,31.0,29.78,WSW,250,0.0,0.0,67,0.00,,,1.87,,2013-04-19 08:52:00,
2013-04-19 04:01:00,41.0,31.0,29.78,West,271,0.0,0.0,68,0.00,,,1.87,,2013-04-19 09:01:00,
2013-04-19 04:12:00,41.0,31.0,29.78,West,271,0.0,0.0,68,0.00,,,1.87,,2013-04-19 09:12:00,
2013-04-19 04:21:00,41.0,31.0,29.78,SW,226,0.0,0.0,68,0.00,,,1.87,,2013-04-19 09:21:00,
2013-04-19 04:32:00,41.0,30.0,29.78,WNW,300,0.0,0.0,65,0.00,,,1.87,,2013-04-19 09:32:00,
2013-04-19 04:42:00,41.0,30.0,29.78,WNW,300,0.0,0.0,65,0.00,,,1.87,,2013-04-19 09:42:00,
2013-04-19 04:52:00,41.0,29.0,29.78,WNW,287,0.0,0.0,63,0.00,,,1.87,,2013-04-19 09:52:00,
2013-04-19 05:02:00,40.0,30.0,29.79,WNW,292,0.0,0.0,66,0.00,,,1.87,,2013-04-19 10:02:00,
2013-04-19 05:13:00,40.0,29.0,29.79,West,281,0.0,0.0,65,0.00,,,1.87,,2013-04-19 10:13:00,
2013-04-19 05:23:00,40.0,29.0,29.79,West,281,0.0,0.0,65,0.00,,,1.87,,2013-04-19 10:23:00,
2013-04-19 05:33:00,40.0,29.0,29.79,WSW,256,0.0,0.0,65,0.00,,,1.87,,2013-04-19 10:33:00,
2013-04-19 05:42:00,40.0,29.0,29.80,SW,223,0.0,0.0,64,0.00,,,1.87,,2013-04-19 10:42:00,
2013-04-19 05:52:00,40.0,29.0,29.80,SW,223,0.0,0.0,64,0.00,,,1.87,,2013-04-19 10:52:00,
2013-04-19 06:02:00,40.0,28.0,29.80,West,279,0.0,0.0,63,0.00,,,1.87,,2013-04-19 11:02:00,
2013-04-19 06:11:00,40.0,28.0,29.80,West,279,0.0,0.0,63,0.00,,,1.87,,2013-04-19 11:11:00,
2013-04-19 06:22:00,40.0,28.0,29.81,WSW,257,0.0,0.0,62,0.00,,,1.87,,2013-04-19 11:22:00,
2013-04-19 06:32:00,40.0,28.0,29.82,West,261,0.0,0.0,61,0.00,,,1.75,,2013-04-19 11:32:00,
2013-04-19 06:42:00,40.0,28.0,29.82,West,261,0.0,0.0,61,0.00,,,1.75,,2013-04-19 11:42:00,
2013-04-19 06:52:00,40.0,28.0,29.82,WSW,257,0.0,0.0,61,0.00,,,1.75,,2013-04-19 11:52:00,
2013-04-19 07:03:00,40.0,29.0,29.83,West,267,0.0,0.0,64,0.00,,,1.75,,2013-04-19 12:03:00,
2013-04-19 07:12:00,40.0,29.0,29.83,West,267,0.0,0.0,64,0.00,,,1.75,,2013-04-19 12:12:00,
2013-04-19 07:22:00,40.0,30.0,29.84,WNW,296,0.0,0.0,66,0.00,,,1.75,,2013-04-19 12:22:00,
2013-04-19 07:32:00,40.0,30.0,29.85,NW,311,0.0,0.0,67,0.00,,,1.46,,2013-04-19 12:32:00,
2013-04-19 07:42:00,40.0,30.0,29.85,NW,311,0.0,0.0,67,0.00,,,1.46,,2013-04-19 12:42:00,
2013-04-19 07:52:00,39.0,30.0,29.86,South,190,0.0,0.0,69,0.00,,,1.46,,2013-04-19 12:52:00,
2013-04-19 08:01:00,39.0,29.0,29.87,WSW,248,0.0,0.0,68,0.00,,,1.46,,2013-04-19 13:01:00,
2013-04-19 08:11:00,39.0,29.0,29.87,WSW,248,0.0,0.0,68,0.00,,,1.46,,2013-04-19 13:11:00,
2013-04-19 08:21:00,39.0,29.0,29.88,North,355,0.0,0.0,68,0.00,,,1.46,,2013-04-19 13:21:00,
2013-04-19 08:32:00,39.0,29.0,29.88,NW,323,0.0,0.0,67,0.00,,,1.38,,2013-04-19 13:32:00,
2013-04-19 08:42:00,39.0,29.0,29.88,NW,323,0.0,0.0,67,0.00,,,1.38,,2013-04-19 13:42:00,
2013-04-19 08:52:00,39.0,29.0,29.89,WNW,302,0.0,0.0,66,0.00,,,1.38,,2013-04-19 13:52:00,
2013-04-19 09:02:00,39.0,29.0,29.88,NW,309,0.0,0.0,67,0.00,,,1.38,,2013-04-19 14:02:00,
2013-04-19 09:11:00,39.0,29.0,29.88,NW,309,0.0,0.0,67,0.00,,,1.38,,2013-04-19 14:11:00,
2013-04-19 09:22:00,39.0,29.0,29.88,WNW,288,0.0,0.0,66,0.00,,,1.38,,2013-04-19 14:22:00,
2013-04-19 09:32:00,39.0,29.0,29.88,WNW,295,0.0,0.0,67,0.00,,,1.27,,2013-04-19 14:32:00,
2013-04-19 09:42:00,39.0,29.0,29.88,WNW,295,0.0,0.0,67,0.00,,,1.27,,2013-04-19 14:42:00,
2013-04-19 09:52:00,39.0,29.0,29.89,WNW,292,0.0,0.0,66,0.00,,,1.27,,2013-04-19 14:52:00,
2013-04-19 10:01:00,40.0,29.0,29.89,SSE,167,0.0,0.0,64,0.00,,,1.27,,2013-04-19 15:01:00,
2013-04-19 10:12:00,40.0,29.0,29.89,SSE,167,0.0,0.0,64,0.00,,,1.27,,2013-04-19 15:12:00,
2013-04-19 10:21:00,40.0,28.0,29.89,SW,217,0.0,0.0,63,0.00,,,1.27,,2013-04-19 15:21:00,
2013-04-19 10:33:00,40.0,28.0,29.89,West,267,0.0,0.0,61,0.00,,,1.05,,2013-04-19 15:33:00,
2013-04-19 10:43:00,40.0,28.0,29.89,West,267,0.0,0.0,61,0.00,,,1.05,,2013-04-19 15:43:00,
2013-04-19 10:52:00,40.0,28.0,29.89,West,267,0.0,0.0,61,0.00,,,1.05,,2013-04-19 15:52:00,
2013-04-19 11:03:00,40.0,28.0,29.90,West,277,0.0,0.0,63,0.00,,,1.05,,2013-04-19 16:03:00,
2013-04-19 11:13:00,40.0,28.0,29.90,West,277,0.0,0.0,63,0.00,,,1.05,,2013-04-19 16:13:00,
2013-04-19 11:23:00,41.0,29.0,29.90,SW,226,0.0,0.0,61,0.00,,,1.05,,2013-04-19 16:23:00,
2013-04-19 11:32:00,41.0,29.0,29.91,West,269,0.0,0.0,63,0.00,,,0.76,,2013-04-19 16:32:00,
2013-04-19 11:42:00,41.0,29.0,29.91,West,269,0.0,0.0,63,0.00,,,0.76,,2013-04-19 16:42:00,
2013-04-19 11:52:00,42.0,29.0,29.90,West,265,0.0,0.0,59,0.00,,,0.76,,2013-04-19 16:52:00,
2013-04-19 12:02:00,42.0,29.0,29.91,WNW,282,0.0,0.0,59,0.00,,,0.76,,2013-04-19 17:02:00,
2013-04-19 12:12:00,42.0,29.0,29.91,WNW,282,0.0,0.0,59,0.00,,,0.76,,2013-04-19 17:12:00,
2013-04-19 12:21:00,44.0,30.0,29.90,SW,219,0.0,0.0,58,0.00,,,0.76,,2013-04-19 17:21:00,
2013-04-19 12:33:00,43.0,29.0,29.90,WSW,245,0.0,0.0,57,0.00,,,0.51,,2013-04-19 17:33:00,
2013-04-19 12:42:00,43.0,29.0,29.90,WSW,245,0.0,0.0,57,0.00,,,0.51,,2013-04-19 17:42:00,
2013-04-19 12:52:00,44.0,30.0,29.91,SSE,153,0.0,0.0,57,0.00,,,0.51,,2013-04-19 17:52:00,
2013-04-19 13:02:00,46.0,31.0,29.90,West,261,0.0,0.0,55,0.00,,,0.51,,2013-04-19 18:02:00,
2013-04-19 13:13:00,46.0,31.0,29.90,West,261,0.0,0.0,55,0.00,,,0.51,,2013-04-19 18:13:00,
2013-04-19 13:23:00,46.0,30.0,29.90,West,275,0.0,0.0,53,0.00,,,0.51,,2013-04-19 18:23:00,
2013-04-19 13:33:00,46.0,29.0,29.90,WSW,250,0.0,0.0,52,0.00,,,0.33,,2013-04-19 18:33:00,
2013-04-19 13:43:00,46.0,29.0,29.90,WSW,250,0.0,0.0,52,0.00,,,0.33,,2013-04-19 18:43:00,
2013-04-19 13:52:00,47.0,29.0,29.90,SW,228,0.0,0.0,49,0.00,,,0.33,,2013-04-19 18:52:00,
2013-04-19 14:02:00,48.0,31.0,29.90,South,181,0.0,0.0,51,0.00,,,0.33,,2013-04-19 19:02:00,
2013-04-19 14:11:00,48.0,31.0,29.90,South,181,0.0,0.0,51,0.00,,,0.33,,2013-04-19 19:11:00,
2013-04-19 14:21:00,49.0,29.0,29.91,South,188,0.0,0.0,46,0.00,,,0.33,,2013-04-19 19:21:00,
2013-04-19 14:32:00,49.0,29.0,29.90,WSW,250,0.0,0.0,46,0.00,,,0.25,,2013-04-19 19:32:00,
2013-04-19 14:42:00,49.0,29.0,29.90,WSW,250,0.0,0.0,46,0.00,,,0.25,,2013-04-19 19:42:00,
2013-04-19 14:52:00,49.0,28.0,29.91,NW,310,0.0,0.0,44,0.00,,,0.25,,2013-04-19 19:52:00,
2013-04-19 15:02:00,50.0,28.0,29.91,NNW,347,0.0,0.0,43,0.00,,,0.25,,2013-04-19 20:02:00,
2013-04-19 15:11:00,50.0,28.0,29.91,NNW,347,0.0,0.0,43,0.00,,,0.25,,2013-04-19 20:11:00,
2013-04-19 15:22:00,51.0,29.0,29.91,West,277,0.0,0.0,42,0.00,,,0.25,,2013-04-19 20:22:00,
2013-04-19 15:32:00,51.0,28.0,29.91,SW,235,0.0,0.0,41,0.00,,,0.15,,2013-04-19 20:32:00,
2013-04-19 15:42:00,51.0,28.0,29.91,SW,227,0.0,0.0,40,0.00,,,0.15,,2013-04-19 20:42:00,
2013-04-19 15:51:00,51.0,28.0,29.91,SW,227,0.0,0.0,40,0.00,,,0.15,,2013-04-19 20:51:00,
2013-04-19 16:01:00,51.0,26.0,29.91,WNW,300,0.0,0.0,38,0.00,,,0.15,,2013-04-19 21:01:00,
2013-04-19 16:11:00,51.0,26.0,29.91,WSW,255,0.0,0.0,37,0.00,,,0.15,,2013-04-19 21:11:00,
2013-04-19 16:21:00,51.0,26.0,29.91,WSW,255,0.0,0.0,37,0.00,,,0.15,,2013-04-19 21:21:00,
2013-04-19 16:32:00,52.0,27.0,29.91,WNW,290,0.0,0.0,37,0.00,,,0.05,,2013-04-19 21:32:00,
2013-04-19 16:42:00,52.0,27.0,29.91,WNW,290,0.0,0.0,37,0.00,,,0.05,,2013-04-19 21:42:00,
2013-04-19 16:52:00,51.0,25.0,29.92,NNW,338,0.0,0.0,36,0.00,,,0.05,,2013-04-19 21:52:00,
2013-04-19 17:02:00,52.0,26.0,29.93,WSW,250,0.0,0.0,36,0.00,,,0.05,,2013-04-19 22:02:00,
2013-04-19 17:12:00,52.0,26.0,29.93,WSW,250,0.0,0.0,36,0.00,,,0.05,,2013-04-19 22:12:00,
2013-04-19 17:22:00,52.0,25.0,29.93,WNW,288,0.0,0.0,35,0.00,,,0.05,,2013-04-19 22:22:00,
2013-04-19 17:33:00,52.0,25.0,29.94,South,178,0.0,0.0,35,0.00,,,0.02,,2013-04-19 22:33:00,
2013-04-19 17:42:00,52.0,25.0,29.94,South,178,0.0,0.0,35,0.00,,,0.02,,2013-04-19 22:42:00,
2013-04-19 17:52:00,52.0,25.0,29.94,West,275,0.0,0.0,34,0.00,,,0.02,,2013-04-19 22:52:00,
2013-04-19 18:03:00,52.0,25.0,29.96,West,259,0.0,0.0,34,0.00,,,0.02,,2013-04-19 23:03:00,
2013-04-19 18:11:00,52.0,25.0,29.96,West,259,0.0,0.0,34,0.00,,,0.02,,2013-04-19 23:11:00,
2013-04-19 18:22:00,52.0,25.0,29.96,West,260,0.0,0.0,35,0.00,,,0.02,,2013-04-19 23:22:00,
2013-04-19 18:32:00,51.0,23.0,29.97,West,268,0.0,0.0,33,0.00,,,0.01,,2013-04-19 23:32:00,
2013-04-19 18:42:00,51.0,23.0,29.97,West,268,0.0,0.0,33,0.00,,,0.01,,2013-04-19 23:42:00,
2013-04-19 18:52:00,51.0,25.0,29.97,West,262,0.0,0.0,36,0.00,,,0.01,,2013-04-19 23:52:00,
2013-04-19 19:02:00,50.0,25.0,29.97,West,268,0.0,0.0,38,0.00,,,0.01,,2013-04-20 00:02:00,
2013-04-19 19:12:00,50.0,25.0,29.97,West,268,0.0,0.0,38,0.00,,,0.01,,2013-04-20 00:12:00,
2013-04-19 19:21:00,50.0,24.0,29.98,NW,309,0.0,0.0,36,0.00,,,0.01,,2013-04-20 00:21:00,
2013-04-19 19:32:00,50.0,25.0,29.99,West,265,0.0,0.0,38,0.00,,,0.01,,2013-04-20 00:32:00,
2013-04-19 19:41:00,50.0,25.0,29.99,West,265,0.0,0.0,38,0.00,,,0.01,,2013-04-20 00:41:00,
2013-04-19 19:51:00,50.0,25.0,30.00,WNW,303,0.0,0.0,38,0.00,,,0.01,,2013-04-20 00:51:00,
2013-04-19 20:01:00,49.0,25.0,30.00,SW,227,0.0,0.0,38,0.00,,,0.01,,2013-04-20 01:01:00,
2013-04-19 20:11:00,49.0,25.0,30.00,SW,227,0.0,0.0,38,0.00,,,0.01,,2013-04-20 01:11:00,
2013-04-19 20:21:00,49.0,25.0,30.01,NW,319,0.0,0.0,39,0.00,,,0.01,,2013-04-20 01:21:00,
2013-04-19 20:32:00,49.0,26.0,30.01,WNW,287,0.0,0.0,40,0.00,,,0.01,,2013-04-20 01:32:00,
2013-04-19 20:42:00,49.0,26.0,30.01,WNW,287,0.0,0.0,40,0.00,,,0.01,,2013-04-20 01:42:00,
2013-04-19 20:52:00,48.0,25.0,30.02,NW,306,0.0,0.0,41,0.00,,,0.01,,2013-04-20 01:52:00,
2013-04-19 21:01:00,48.0,26.0,30.03,West,265,0.0,0.0,42,0.00,,,0.01,,2013-04-20 02:01:00,
2013-04-19 21:11:00,48.0,26.0,30.03,West,265,0.0,0.0,42,0.00,,,0.01,,2013-04-20 02:11:00,
2013-04-19 21:21:00,47.0,26.0,30.03,WNW,290,0.0,0.0,44,0.00,,,0.01,,2013-04-20 02:21:00,
2013-04-19 21:32:00,47.0,26.0,30.04,NW,306,0.0,0.0,44,0.00,,,0.01,,2013-04-20 02:32:00,
2013-04-19 21:42:00,47.0,26.0,30.04,NW,306,0.0,0.0,44,0.00,,,0.01,,2013-04-20 02:42:00,
2013-04-19 21:52:00,46.0,27.0,30.04,West,260,0.0,0.0,47,0.00,,,0.01,,2013-04-20 02:52:00,
2013-04-19 22:01:00,45.0,27.0,30.05,West,260,0.0,0.0,50,0.00,,,0.01,,2013-04-20 03:01:00,
2013-04-19 22:11:00,45.0,27.0,30.05,West,260,0.0,0.0,50,0.00,,,0.01,,2013-04-20 03:11:00,
2013-04-19 22:21:00,44.0,26.0,30.06,West,260,0.0,0.0,49,0.00,,,0.01,,2013-04-20 03:21:00,
2013-04-19 22:33:00,43.0,27.0,30.06,West,260,0.0,0.0,52,0.00,,,0.01,,2013-04-20 03:33:00,
2013-04-19 22:43:00,43.0,27.0,30.06,West,260,0.0,0.0,52,0.00,,,0.01,,2013-04-20 03:43:00,
2013-04-19 22:52:00,43.0,27.0,30.06,West,260,0.0,0.0,52,0.00,,,0.01,,2013-04-20 03:52:00,
2013-04-19 23:03:00,42.0,27.0,30.06,West,260,0.0,0.0,55,0.00,,,0.01,,2013-04-20 04:03:00,
2013-04-19 23:12:00,42.0,27.0,30.06,West,260,0.0,0.0,55,0.00,,,0.01,,2013-04-20 04:12:00,
2013-04-19 23:23:00,42.0,27.0,30.06,West,260,0.0,0.0,55,0.00,,,0.01,,2013-04-20 04:23:00,
2013-04-19 23:32:00,42.0,28.0,30.07,West,260,0.0,0.0,58,0.00,,,0.00,,2013-04-20 04:32:00,
2013-04-19 23:42:00,42.0,28.0,30.07,West,260,0.0,0.0,58,0.00,,,0.00,,2013-04-20 04:42:00,
2013-04-19 23:52:00,41.0,29.0,30.07,West,260,0.0,0.0,61,0.00,,,0.00,,2013-04-20 04:52:00,